EVA858 VHHH-RCTP

Flight info

Callsign EVA858
Flight time 1h 25m
Altitude 39000
Route DALOL V631 ENVAR M750 EXTRA/N0405F290 M750 TONGA TONGA1A
Aircraft A333/H-SDE3GHIJ2J3J5M1RVWXY/LB2D1

Departure

Time 2026-05-04 13:20
Airport Hong Kong International Airport (VHHH)

Arrival

Time 2026-05-04 14:45
Airport Taiwan Taoyuan International Airport (RCTP)
Time Latitude Longitude Altitude Speed Heading
2026-05-04 12:07 22.31817 113.93259 41 ft 0 kts 71°
2026-05-04 12:11 22.31817 113.93258 41 ft 0 kts 71°
2026-05-04 12:22 22.31817 113.93257 41 ft 0 kts 71°
2026-05-04 12:30 22.31816 113.93257 41 ft 0 kts 71°
2026-05-04 12:30 22.31817 113.93257 41 ft 0 kts 71°
2026-05-04 12:31 22.31816 113.93257 41 ft 0 kts 71°
2026-05-04 12:32 22.31816 113.93256 41 ft 0 kts 71°
2026-05-04 12:41 22.31816 113.93255 13 ft 0 kts 71°
2026-05-04 12:47 22.31816 113.93254 13 ft 0 kts 71°
2026-05-04 12:54 22.31815 113.93254 41 ft 0 kts 71°
2026-05-04 12:54 22.31815 113.93253 41 ft 0 kts 71°
2026-05-04 13:00 22.31813 113.93246 41 ft 4 kts 71°
2026-05-04 13:00 22.31804 113.93218 38 ft 4 kts 71°
2026-05-04 13:00 22.31795 113.93191 38 ft 3 kts 71°
2026-05-04 13:01 22.31786 113.93169 35 ft 4 kts 39°
2026-05-04 13:01 22.31764 113.93160 38 ft 4 kts 354°
2026-05-04 13:01 22.31738 113.93167 39 ft 3 kts 341°
2026-05-04 13:01 22.31735 113.93168 39 ft 13 kts 341°
2026-05-04 13:05 22.31737 113.93167 39 ft 1 kts 341°
2026-05-04 13:06 22.31759 113.93159 38 ft 5 kts 341°
2026-05-04 13:06 22.31808 113.93140 40 ft 9 kts 341°
2026-05-04 13:06 22.31860 113.93098 41 ft 9 kts 297°
2026-05-04 13:06 22.31868 113.93018 41 ft 12 kts 265°
2026-05-04 13:07 22.31837 113.92940 41 ft 12 kts 241°
2026-05-04 13:07 22.31802 113.92851 41 ft 14 kts 249°
2026-05-04 13:07 22.31771 113.92754 41 ft 14 kts 249°
2026-05-04 13:07 22.31738 113.92653 41 ft 15 kts 251°
2026-05-04 13:08 22.31704 113.92547 41 ft 14 kts 250°
2026-05-04 13:08 22.31673 113.92448 41 ft 15 kts 251°
2026-05-04 13:08 22.31637 113.92335 40 ft 17 kts 251°
2026-05-04 13:08 22.31598 113.92216 40 ft 18 kts 250°
2026-05-04 13:09 22.31553 113.92084 40 ft 19 kts 250°
2026-05-04 13:09 22.31531 113.92039 41 ft 1 kts 205°
2026-05-04 13:09 22.31528 113.92040 41 ft 1 kts 187°
2026-05-04 13:09 22.31524 113.92044 41 ft 1 kts 153°
2026-05-04 13:10 22.31511 113.92051 41 ft 3 kts 153°
2026-05-04 13:10 22.31487 113.92064 41 ft 5 kts 153°
2026-05-04 13:10 22.31453 113.92083 41 ft 6 kts 155°
2026-05-04 13:10 22.31413 113.92097 41 ft 7 kts 162°
2026-05-04 13:11 22.31363 113.92115 41 ft 8 kts 162°
2026-05-04 13:11 22.31302 113.92136 41 ft 10 kts 162°
2026-05-04 13:11 22.31233 113.92161 41 ft 11 kts 160°
2026-05-04 13:11 22.31156 113.92191 40 ft 12 kts 160°
2026-05-04 13:12 22.31071 113.92224 41 ft 14 kts 160°
2026-05-04 13:12 22.31010 113.92248 41 ft 14 kts 160°
2026-05-04 13:12 22.30878 113.92300 41 ft 16 kts 160°
2026-05-04 13:12 22.30808 113.92327 41 ft 16 kts 160°
2026-05-04 13:13 22.30698 113.92368 41 ft 14 kts 171°
2026-05-04 13:13 22.30632 113.92334 41 ft 10 kts 232°
2026-05-04 13:13 22.30602 113.92264 41 ft 12 kts 250°
2026-05-04 13:13 22.30573 113.92174 41 ft 13 kts 251°
2026-05-04 13:14 22.30542 113.92074 41 ft 15 kts 250°
2026-05-04 13:14 22.30505 113.91966 41 ft 16 kts 250°
2026-05-04 13:14 22.30464 113.91845 41 ft 18 kts 251°
2026-05-04 13:14 22.30423 113.91715 41 ft 19 kts 251°
2026-05-04 13:15 22.30381 113.91574 40 ft 20 kts 252°
2026-05-04 13:15 22.30334 113.91428 40 ft 21 kts 250°
2026-05-04 13:15 22.30284 113.91278 40 ft 22 kts 250°
2026-05-04 13:15 22.30233 113.91121 41 ft 23 kts 251°
2026-05-04 13:16 22.30180 113.90957 41 ft 24 kts 251°
2026-05-04 13:16 22.30125 113.90787 41 ft 25 kts 250°
2026-05-04 13:16 22.30067 113.90608 40 ft 26 kts 250°
2026-05-04 13:16 22.30014 113.90443 40 ft 22 kts 251°
2026-05-04 13:17 22.29964 113.90285 40 ft 23 kts 251°
2026-05-04 13:17 22.29912 113.90129 40 ft 21 kts 249°
2026-05-04 13:17 22.29860 113.89978 40 ft 21 kts 251°
2026-05-04 13:17 22.29804 113.89884 40 ft 9 kts 197°
2026-05-04 13:18 22.29750 113.89887 40 ft 7 kts 165°
2026-05-04 13:18 22.29703 113.89902 41 ft 8 kts 162°
2026-05-04 13:18 22.29673 113.89920 40 ft 1 kts 116°
2026-05-04 13:18 22.29669 113.89937 40 ft 3 kts 99°
2026-05-04 13:19 22.29673 113.89959 40 ft 4 kts 75°
2026-05-04 13:19 22.29677 113.89973 40 ft 1 kts 71°
2026-05-04 13:19 22.29698 113.90036 40 ft 30 kts 70°
2026-05-04 13:19 22.29843 113.90486 39 ft 94 kts 70°
2026-05-04 13:20 22.30116 113.91339 49 ft 144 kts 73°
2026-05-04 13:20 22.30434 113.92374 567 ft 148 kts 74°
2026-05-04 13:20 22.30779 113.93456 1170 ft 154 kts 71°
2026-05-04 13:20 22.31169 113.94600 1530 ft 174 kts 71°
2026-05-04 13:21 22.31631 113.95941 1737 ft 206 kts 70°
2026-05-04 13:21 22.32176 113.97474 2014 ft 235 kts 71°
2026-05-04 13:21 22.32775 113.99212 2421 ft 256 kts 72°
2026-05-04 13:21 22.33354 114.01040 3257 ft 258 kts 74°
2026-05-04 13:22 22.33791 114.02941 4006 ft 265 kts 85°
2026-05-04 13:22 22.33673 114.04946 4756 ft 272 kts 107°
2026-05-04 13:22 22.32803 114.06764 5493 ft 277 kts 132°
2026-05-04 13:22 22.31307 114.08074 6270 ft 280 kts 155°
2026-05-04 13:23 22.29457 114.08716 7048 ft 280 kts 176°
2026-05-04 13:23 22.27515 114.08803 7935 ft 280 kts 184°
2026-05-04 13:23 22.25567 114.08760 8882 ft 281 kts 185°
2026-05-04 13:23 22.23598 114.08710 9801 ft 285 kts 185°
2026-05-04 13:24 22.21590 114.08669 10496 ft 295 kts 185°
2026-05-04 13:24 22.19488 114.08640 10853 ft 317 kts 183°
2026-05-04 13:24 22.17239 114.09057 11287 ft 341 kts 162°
2026-05-04 13:25 22.13827 114.12764 12652 ft 368 kts 120°
2026-05-04 13:25 22.12689 114.15272 13374 ft 375 kts 118°
2026-05-04 13:25 22.11550 114.17820 14049 ft 379 kts 121°
2026-05-04 13:25 22.10245 114.20305 14667 ft 383 kts 123°
2026-05-04 13:26 22.08893 114.22797 15303 ft 387 kts 123°
2026-05-04 13:26 22.07516 114.25304 15914 ft 391 kts 123°
2026-05-04 13:26 22.06116 114.27834 16529 ft 395 kts 123°
2026-05-04 13:26 22.04702 114.30379 17131 ft 399 kts 123°
2026-05-04 13:27 22.03268 114.32956 17720 ft 402 kts 123°
2026-05-04 13:27 22.01819 114.35557 18308 ft 406 kts 123°
2026-05-04 13:27 22.00351 114.38188 18781 ft 411 kts 123°
2026-05-04 13:27 21.98873 114.40836 19287 ft 413 kts 124°
2026-05-04 13:28 21.97388 114.43496 19792 ft 416 kts 124°
2026-05-04 13:28 21.95894 114.46167 20262 ft 419 kts 124°
2026-05-04 13:28 21.94381 114.48873 20744 ft 423 kts 124°
2026-05-04 13:28 21.92875 114.51564 21221 ft 426 kts 124°
2026-05-04 13:29 21.91341 114.54304 21681 ft 430 kts 124°
2026-05-04 13:29 21.89787 114.57078 22162 ft 433 kts 124°
2026-05-04 13:29 21.88228 114.59861 22630 ft 437 kts 124°
2026-05-04 13:29 21.86652 114.62672 23097 ft 440 kts 124°
2026-05-04 13:30 21.85063 114.65504 23531 ft 443 kts 124°
2026-05-04 13:30 21.83463 114.68354 23925 ft 447 kts 124°
2026-05-04 13:30 21.81844 114.71238 24301 ft 450 kts 124°
2026-05-04 13:30 21.80226 114.74117 24675 ft 452 kts 124°
2026-05-04 13:31 21.78585 114.77035 25046 ft 455 kts 124°
2026-05-04 13:31 21.76946 114.79952 25392 ft 458 kts 124°
2026-05-04 13:31 21.75472 114.83005 25843 ft 462 kts 115°
2026-05-04 13:31 21.74559 114.86331 26189 ft 470 kts 102°
2026-05-04 13:32 21.74247 114.89856 26517 ft 475 kts 95°
2026-05-04 13:32 21.74150 114.93418 26834 ft 479 kts 92°
2026-05-04 13:32 21.74158 114.97012 27156 ft 482 kts 91°
2026-05-04 13:32 21.74207 115.00631 27489 ft 486 kts 90°
2026-05-04 13:33 21.74258 115.04280 27772 ft 489 kts 91°
2026-05-04 13:33 21.74296 115.07956 28102 ft 492 kts 91°
2026-05-04 13:33 21.74317 115.11642 28419 ft 495 kts 91°
2026-05-04 13:33 21.74325 115.15356 28722 ft 497 kts 92°
2026-05-04 13:34 21.74323 115.19086 29029 ft 500 kts 92°
2026-05-04 13:34 21.74317 115.22796 29323 ft 503 kts 92°
2026-05-04 13:34 21.74308 115.26565 29613 ft 506 kts 92°
2026-05-04 13:34 21.74298 115.30407 29909 ft 508 kts 92°
2026-05-04 13:35 21.74287 115.34164 30182 ft 511 kts 92°
2026-05-04 13:35 21.74266 115.41820 30704 ft 514 kts 92°
2026-05-04 13:35 21.74255 115.45686 30926 ft 517 kts 92°
2026-05-04 13:36 21.74242 115.49561 31158 ft 519 kts 92°
2026-05-04 13:36 21.74229 115.53455 31394 ft 521 kts 92°
2026-05-04 13:36 21.74215 115.57367 31624 ft 524 kts 92°
2026-05-04 13:36 21.74200 115.61296 31851 ft 526 kts 92°
2026-05-04 13:37 21.74185 115.65233 32083 ft 528 kts 92°
2026-05-04 13:37 21.74170 115.69180 32322 ft 529 kts 92°
2026-05-04 13:37 21.74153 115.73151 32620 ft 530 kts 92°
2026-05-04 13:37 21.74142 115.75777 32818 ft 529 kts 92°
2026-05-04 13:38 21.74118 115.81074 33232 ft 530 kts 92°
2026-05-04 13:38 21.74099 115.85037 33542 ft 530 kts 91°
2026-05-04 13:38 21.74079 115.89003 33842 ft 530 kts 91°
2026-05-04 13:38 21.74057 115.92969 34131 ft 530 kts 91°
2026-05-04 13:39 21.74035 115.96932 34419 ft 529 kts 91°
2026-05-04 13:39 21.74012 116.00890 34742 ft 528 kts 91°
2026-05-04 13:39 21.73988 116.04831 35052 ft 526 kts 91°
2026-05-04 13:39 21.73963 116.08766 35335 ft 525 kts 91°
2026-05-04 13:40 21.73938 116.12641 35613 ft 524 kts 91°
2026-05-04 13:40 21.73912 116.16559 35885 ft 524 kts 91°
2026-05-04 13:40 21.73884 116.20471 36154 ft 523 kts 91°
2026-05-04 13:40 21.73856 116.24378 36422 ft 523 kts 91°
2026-05-04 13:41 21.73826 116.28285 36702 ft 521 kts 91°
2026-05-04 13:41 21.73796 116.32183 36990 ft 520 kts 91°
2026-05-04 13:41 21.73765 116.36059 37250 ft 519 kts 91°
2026-05-04 13:42 21.73701 116.43825 37740 ft 518 kts 91°
2026-05-04 13:42 21.73667 116.47692 37988 ft 517 kts 91°
2026-05-04 13:42 21.73633 116.51561 38228 ft 517 kts 91°
2026-05-04 13:42 21.73598 116.55424 38471 ft 516 kts 91°
2026-05-04 13:43 21.73562 116.59282 38729 ft 514 kts 91°
2026-05-04 13:43 21.73525 116.63117 38969 ft 513 kts 91°
2026-05-04 13:43 21.73449 116.70795 39058 ft 513 kts 91°
2026-05-04 13:44 21.73828 116.78442 39058 ft 512 kts 77°
2026-05-04 13:44 21.75929 116.85723 39060 ft 511 kts 68°
2026-05-04 13:45 21.78491 116.92878 39062 ft 512 kts 66°
2026-05-04 13:45 21.81125 116.99995 38959 ft 511 kts 66°
2026-05-04 13:46 21.82410 117.03494 38725 ft 510 kts 66°
2026-05-04 13:46 21.83709 117.07054 38461 ft 510 kts 66°
2026-05-04 13:46 21.85000 117.10615 38199 ft 511 kts 66°
2026-05-04 13:46 21.86291 117.14191 37927 ft 513 kts 67°
2026-05-04 13:47 21.87582 117.17775 37648 ft 513 kts 67°
2026-05-04 13:47 21.88874 117.21367 37405 ft 514 kts 67°
2026-05-04 13:47 21.90164 117.24958 37159 ft 514 kts 67°
2026-05-04 13:47 21.91454 117.28550 36898 ft 515 kts 67°
2026-05-04 13:48 21.92747 117.32154 36653 ft 516 kts 67°
2026-05-04 13:48 21.94042 117.35763 36431 ft 517 kts 67°
2026-05-04 13:48 21.95342 117.39391 36186 ft 519 kts 67°
2026-05-04 13:48 21.96630 117.42985 35950 ft 521 kts 67°
2026-05-04 13:49 21.97937 117.46637 35714 ft 522 kts 67°
2026-05-04 13:49 21.99422 117.50195 35475 ft 520 kts 58°
2026-05-04 13:49 22.01196 117.53577 35239 ft 519 kts 57°
2026-05-04 13:49 22.03038 117.56938 35009 ft 520 kts 56°
2026-05-04 13:50 22.04916 117.60270 34778 ft 521 kts 56°
2026-05-04 13:50 22.06817 117.63601 34561 ft 521 kts 55°
2026-05-04 13:50 22.08723 117.66929 34329 ft 522 kts 55°
2026-05-04 13:50 22.10636 117.70275 34119 ft 523 kts 55°
2026-05-04 13:51 22.12542 117.73619 33856 ft 524 kts 56°
2026-05-04 13:51 22.14450 117.76976 33598 ft 524 kts 56°
2026-05-04 13:51 22.16331 117.80294 33366 ft 526 kts 56°
2026-05-04 13:51 22.18237 117.83662 33110 ft 527 kts 56°
2026-05-04 13:52 22.22050 117.90413 32624 ft 528 kts 56°
2026-05-04 13:52 22.23966 117.93808 32385 ft 528 kts 57°
2026-05-04 13:52 22.25877 117.97196 32136 ft 528 kts 57°
2026-05-04 13:53 22.27786 118.00575 31890 ft 527 kts 57°
2026-05-04 13:53 22.29714 118.03929 31657 ft 525 kts 56°
2026-05-04 13:53 22.31657 118.07264 31416 ft 523 kts 56°
2026-05-04 13:54 22.35530 118.13873 30625 ft 517 kts 56°
2026-05-04 13:54 22.37455 118.17160 29974 ft 517 kts 57°
2026-05-04 13:54 22.41251 118.23697 29094 ft 505 kts 57°
2026-05-04 13:55 22.43083 118.26915 29071 ft 502 kts 57°
2026-05-04 13:55 22.48553 118.36605 29065 ft 504 kts 58°
2026-05-04 13:56 22.52203 118.43073 29058 ft 503 kts 57°
2026-05-04 13:57 22.57065 118.51677 29069 ft 503 kts 57°
2026-05-04 13:58 22.65023 118.65622 29070 ft 503 kts 57°
2026-05-04 13:58 22.70522 118.75295 29067 ft 503 kts 57°
2026-05-04 13:59 22.73571 118.80666 29067 ft 503 kts 57°
2026-05-04 13:59 22.77231 118.87120 28701 ft 503 kts 57°
2026-05-04 14:00 22.79073 118.90369 27765 ft 508 kts 58°
2026-05-04 14:00 22.82785 118.96928 26348 ft 507 kts 57°
2026-05-04 14:00 22.85211 119.01220 25627 ft 501 kts 57°
2026-05-04 14:01 22.87019 119.04422 25084 ft 496 kts 57°
2026-05-04 14:01 22.88233 119.06572 24712 ft 493 kts 57°
2026-05-04 14:01 22.91779 119.12859 23664 ft 484 kts 57°
2026-05-04 14:02 22.93502 119.15917 23055 ft 479 kts 57°
2026-05-04 14:02 22.95236 119.18995 22429 ft 475 kts 57°
2026-05-04 14:02 22.96951 119.22041 21824 ft 471 kts 57°
2026-05-04 14:02 22.98638 119.25042 21483 ft 460 kts 57°
2026-05-04 14:03 23.00283 119.27969 21303 ft 447 kts 57°
2026-05-04 14:03 23.01882 119.30816 21077 ft 439 kts 57°
2026-05-04 14:03 23.03474 119.33650 20893 ft 438 kts 57°
2026-05-04 14:03 23.05055 119.36466 20671 ft 438 kts 57°
2026-05-04 14:04 23.08218 119.42106 20265 ft 436 kts 57°
2026-05-04 14:04 23.09791 119.44913 20061 ft 434 kts 57°
2026-05-04 14:04 23.11359 119.47714 19862 ft 433 kts 57°
2026-05-04 14:05 23.14484 119.53299 19442 ft 431 kts 57°
2026-05-04 14:05 23.16040 119.56080 19256 ft 430 kts 57°
2026-05-04 14:05 23.17791 119.58688 19050 ft 426 kts 43°
2026-05-04 14:06 23.20061 119.60623 18857 ft 419 kts 28°
2026-05-04 14:06 23.22565 119.62243 18682 ft 416 kts 25°
2026-05-04 14:06 23.25069 119.63792 18469 ft 413 kts 25°
2026-05-04 14:06 23.27564 119.65336 18270 ft 411 kts 25°
2026-05-04 14:07 23.30047 119.66881 18059 ft 410 kts 26°
2026-05-04 14:07 23.32519 119.68428 17867 ft 409 kts 26°
2026-05-04 14:07 23.34976 119.69970 17684 ft 407 kts 26°
2026-05-04 14:07 23.37424 119.71510 17486 ft 406 kts 26°
2026-05-04 14:08 23.39866 119.73048 17304 ft 405 kts 26°
2026-05-04 14:08 23.42306 119.74586 17102 ft 404 kts 26°
2026-05-04 14:08 23.44732 119.76116 16927 ft 402 kts 26°
2026-05-04 14:08 23.47147 119.77642 16747 ft 401 kts 26°
2026-05-04 14:09 23.51886 119.80838 16364 ft 400 kts 28°
2026-05-04 14:09 23.54234 119.82458 16175 ft 399 kts 28°
2026-05-04 14:10 23.58878 119.85660 15808 ft 396 kts 28°
2026-05-04 14:10 23.61212 119.87269 15629 ft 395 kts 28°
2026-05-04 14:10 23.63528 119.88866 15432 ft 394 kts 28°
2026-05-04 14:10 23.65843 119.90462 15259 ft 393 kts 29°
2026-05-04 14:11 23.68151 119.92054 15067 ft 391 kts 29°
2026-05-04 14:11 23.72736 119.95218 14707 ft 390 kts 28°
2026-05-04 14:11 23.75033 119.96804 14537 ft 389 kts 28°
2026-05-04 14:12 23.77318 119.98382 14355 ft 388 kts 29°
2026-05-04 14:12 23.79601 119.99960 14173 ft 387 kts 29°
2026-05-04 14:12 23.84138 120.03097 13810 ft 384 kts 29°
2026-05-04 14:13 23.86388 120.04654 13619 ft 383 kts 29°
2026-05-04 14:13 23.88609 120.06192 13431 ft 381 kts 29°
2026-05-04 14:13 23.90850 120.07744 13264 ft 380 kts 29°
2026-05-04 14:13 23.93077 120.09286 13080 ft 379 kts 29°
2026-05-04 14:14 23.95299 120.10826 12921 ft 378 kts 28°
2026-05-04 14:14 23.99734 120.13902 12436 ft 375 kts 29°
2026-05-04 14:14 24.01929 120.15425 12247 ft 373 kts 29°
2026-05-04 14:15 24.06289 120.18452 11893 ft 370 kts 29°
2026-05-04 14:15 24.10616 120.21460 11557 ft 367 kts 29°
2026-05-04 14:16 24.14908 120.24444 11207 ft 364 kts 29°
2026-05-04 14:16 24.17037 120.25925 11030 ft 363 kts 30°
2026-05-04 14:17 24.21290 120.28887 10692 ft 361 kts 29°
2026-05-04 14:17 24.23387 120.30348 10538 ft 362 kts 30°
2026-05-04 14:17 24.27620 120.33299 10214 ft 355 kts 29°
2026-05-04 14:18 24.29666 120.34728 10050 ft 341 kts 30°
2026-05-04 14:18 24.33518 120.37422 9715 ft 319 kts 28°
2026-05-04 14:19 24.37228 120.40011 9412 ft 313 kts 30°
2026-05-04 14:19 24.39053 120.41284 9277 ft 308 kts 30°
2026-05-04 14:19 24.40860 120.42547 9132 ft 308 kts 30°
2026-05-04 14:19 24.42672 120.43814 8997 ft 308 kts 29°
2026-05-04 14:20 24.44488 120.45084 8851 ft 311 kts 30°
2026-05-04 14:20 24.46312 120.46360 8696 ft 310 kts 30°
2026-05-04 14:20 24.48130 120.47633 8564 ft 310 kts 30°
2026-05-04 14:21 24.51781 120.50190 8274 ft 310 kts 29°
2026-05-04 14:21 24.53599 120.51463 8136 ft 308 kts 31°
2026-05-04 14:21 24.55407 120.52731 7975 ft 309 kts 31°
2026-05-04 14:21 24.57194 120.53983 7840 ft 309 kts 30°
2026-05-04 14:22 24.59012 120.55258 7710 ft 310 kts 31°
2026-05-04 14:22 24.60813 120.56523 7568 ft 305 kts 31°
2026-05-04 14:22 24.62588 120.57770 7422 ft 304 kts 31°
2026-05-04 14:22 24.64384 120.59032 7282 ft 305 kts 30°
2026-05-04 14:23 24.67900 120.61657 7007 ft 304 kts 38°
2026-05-04 14:23 24.69495 120.63169 6872 ft 299 kts 41°
2026-05-04 14:23 24.71045 120.64696 6707 ft 301 kts 41°
2026-05-04 14:24 24.72611 120.66245 6567 ft 303 kts 41°
2026-05-04 14:24 24.74183 120.67795 6440 ft 302 kts 41°
2026-05-04 14:24 24.75746 120.69337 6308 ft 299 kts 41°
2026-05-04 14:24 24.77276 120.70845 6158 ft 296 kts 41°
2026-05-04 14:25 24.78815 120.72363 5989 ft 298 kts 41°
2026-05-04 14:25 24.81859 120.75368 5734 ft 291 kts 41°
2026-05-04 14:25 24.83364 120.76845 5574 ft 290 kts 40°
2026-05-04 14:26 24.84866 120.78323 5463 ft 290 kts 41°
2026-05-04 14:26 24.86364 120.79796 5316 ft 290 kts 41°
2026-05-04 14:26 24.87859 120.81270 5202 ft 287 kts 41°
2026-05-04 14:26 24.89334 120.82723 5058 ft 283 kts 40°
2026-05-04 14:27 24.90756 120.84228 4923 ft 284 kts 49°
2026-05-04 14:27 24.91679 120.86132 4788 ft 283 kts 76°
2026-05-04 14:27 24.91838 120.88278 4652 ft 280 kts 91°
2026-05-04 14:27 24.91752 120.90407 4527 ft 277 kts 94°
2026-05-04 14:28 24.91637 120.92510 4392 ft 271 kts 94°
2026-05-04 14:28 24.91530 120.94551 4267 ft 260 kts 94°
2026-05-04 14:28 24.91434 120.96501 4147 ft 251 kts 95°
2026-05-04 14:28 24.91346 120.98371 4032 ft 243 kts 95°
2026-05-04 14:29 24.91970 121.01874 3938 ft 230 kts 63°
2026-05-04 14:29 24.93895 121.04623 3954 ft 219 kts 48°
2026-05-04 14:30 24.94864 121.05852 3851 ft 209 kts 50°
2026-05-04 14:30 24.95811 121.07070 3570 ft 209 kts 49°
2026-05-04 14:30 24.97708 121.09470 2925 ft 200 kts 49°
2026-05-04 14:31 24.98595 121.10594 2675 ft 188 kts 51°
2026-05-04 14:31 25.00196 121.12621 2212 ft 162 kts 53°
2026-05-04 14:32 25.01583 121.14377 1820 ft 144 kts 54°
2026-05-04 14:32 25.02230 121.15199 1633 ft 139 kts 53°
2026-05-04 14:32 25.02831 121.15959 1450 ft 125 kts 52°
2026-05-04 14:32 25.03376 121.16650 1306 ft 117 kts 52°
2026-05-04 14:33 25.03906 121.17322 1151 ft 117 kts 52°
2026-05-04 14:33 25.04441 121.17999 999 ft 118 kts 50°
2026-05-04 14:33 25.04978 121.18677 824 ft 117 kts 51°
2026-05-04 14:33 25.05513 121.19356 671 ft 118 kts 48°
2026-05-04 14:34 25.06050 121.20024 480 ft 114 kts 48°
2026-05-04 14:34 25.06556 121.20639 453 ft 115 kts 50°
2026-05-04 14:34 25.07155 121.21409 236 ft 171 kts 52°
2026-05-04 14:34 25.07663 121.22143 1582 ft 117 kts 61°
2026-05-04 14:35 25.08200 121.22999 2049 ft 139 kts 62°
2026-05-04 14:35 25.08753 121.23883 2581 ft 142 kts 59°
2026-05-04 14:35 25.09369 121.24717 3246 ft 141 kts 53°
2026-05-04 14:35 25.10163 121.25350 3753 ft 158 kts 28°
2026-05-04 14:36 25.11375 121.25473 3957 ft 200 kts 350°
2026-05-04 14:36 25.12704 121.24708 3975 ft 229 kts 320°
2026-05-04 14:36 25.13636 121.23267 3945 ft 232 kts 298°
2026-05-04 14:36 25.14190 121.21607 3947 ft 229 kts 283°
2026-05-04 14:37 25.14301 121.19878 3931 ft 226 kts 262°
2026-05-04 14:37 25.13751 121.18307 3574 ft 226 kts 225°
2026-05-04 14:37 25.12521 121.17232 3153 ft 226 kts 213°
2026-05-04 14:37 25.11175 121.16337 2944 ft 223 kts 204°
2026-05-04 14:38 25.09815 121.15502 2944 ft 222 kts 198°
2026-05-04 14:38 25.08508 121.14603 2956 ft 227 kts 218°
2026-05-04 14:38 25.07501 121.13192 2964 ft 237 kts 234°
2026-05-04 14:38 25.06599 121.11731 2931 ft 225 kts 234°
2026-05-04 14:39 25.05720 121.10360 2928 ft 213 kts 234°
2026-05-04 14:39 25.04871 121.09045 2920 ft 211 kts 234°
2026-05-04 14:39 25.04013 121.07708 2636 ft 216 kts 233°
2026-05-04 14:40 25.01681 121.05858 2070 ft 210 kts 182°
2026-05-04 14:40 25.00332 121.06162 1951 ft 198 kts 146°
2026-05-04 14:40 24.99453 121.07270 1940 ft 194 kts 110°
2026-05-04 14:40 24.99337 121.08716 1944 ft 189 kts 82°
2026-05-04 14:41 24.99633 121.10101 1935 ft 187 kts 76°
2026-05-04 14:41 25.00009 121.11489 1970 ft 189 kts 71°
2026-05-04 14:41 25.01276 121.13933 1905 ft 175 kts 55°
2026-05-04 14:42 25.02746 121.15841 1501 ft 151 kts 52°
2026-05-04 14:42 25.03396 121.16661 1300 ft 135 kts 53°
2026-05-04 14:42 25.03978 121.17408 1111 ft 121 kts 51°
2026-05-04 14:43 25.04516 121.18093 963 ft 117 kts 51°
2026-05-04 14:43 25.05047 121.18767 816 ft 117 kts 48°
2026-05-04 14:43 25.05562 121.19417 663 ft 115 kts 50°
2026-05-04 14:43 25.06077 121.20070 514 ft 114 kts 50°
2026-05-04 14:44 25.06587 121.20717 361 ft 113 kts 53°
2026-05-04 14:44 25.07081 121.21345 227 ft 116 kts 51°
2026-05-04 14:44 25.07467 121.21831 115 ft 113 kts 47°
2026-05-04 14:44 25.07681 121.22105 105 ft 100 kts 53°
2026-05-04 14:45 25.07956 121.22433 107 ft 80 kts 53°
2026-05-04 14:45 25.08097 121.22626 106 ft 70 kts 51°
2026-05-04 14:45 25.08297 121.22885 105 ft 46 kts 53°
2026-05-04 14:45 25.08392 121.23061 104 ft 1 kts 63°
2026-05-04 14:46 25.08400 121.23076 105 ft 10 kts 59°
2026-05-04 14:46 25.08434 121.23158 105 ft 3 kts 61°
2026-05-04 14:46 25.08437 121.23166 105 ft 2 kts 68°
2026-05-04 14:46 25.08441 121.23184 105 ft 5 kts 77°
2026-05-04 14:47 25.08449 121.23225 106 ft 10 kts 77°
2026-05-04 14:47 25.08464 121.23303 106 ft 11 kts 82°